[[{"header":{"parameterUnit":"m.s-1","parameterCategory":1,"la1":30.2991,"la2":30.254,"lo1":-89.0895,"lo2":-89.0444,"dy":0.0017,"dx":0.0017,"nx":28,"ny":28,"refTime":"2024-04-20T09:00:00:Z","depth":0,"parameterNumber":2,"parameterNumberName":"U-component_of_WINDS"},"data":[0,0,0,0,0,0,0,0,0,0,0,0,0,0,0,0,0,0,0,0,0,0,0,0,0,0,0,0,0,0,0,0,0,0,0,0,0,0,0,0,0,0,0,0,0,0,0,0,0,0,0,0,0,0,0,0,0,0,-1.6375,-1.6374,0,-1.6294,-1.6293,-1.6292,-1.6236,-1.6235,-1.6235,-1.6234,-1.6148,-1.6146,-1.6144,0,0,0,0,0,0,0,0,0,0,0,0,0,-1.6478,-1.6476,-1.6375,-1.6374,-1.6373,-1.6294,-1.6293,-1.6291,-1.6236,-1.6235,-1.6235,-1.6234,-1.6149,-1.6146,-1.6144,0,0,0,0,0,0,0,0,0,0,0,0,0,-1.6418,-1.6476,-1.6376,-1.6336,-1.6332,-1.6294,-1.6293,-1.6291,-1.6236,-1.6235,-1.6234,-1.6234,-1.6149,-1.6147,-1.6144,-1.6138,0,0,-1.6135,-1.6134,0,0,0,0,0,0,0,0,-1.6422,-1.6415,-1.6343,-1.6339,-1.6334,-1.6274,-1.6297,-1.624,-1.6236,-1.6272,-1.6234,-1.6234,-1.619,-1.6184,-1.617,-1.6134,-1.6131,-1.6135,-1.6133,-1.6132,-1.6131,0,0,0,0,0,0,0,-1.6426,-1.6418,-1.6343,-1.6342,-1.6336,-1.632,-1.6311,-1.6286,-1.6236,-1.6269,-1.6265,-1.6256,-1.6188,-1.6173,-1.6168,-1.6129,-1.6135,-1.6132,-1.6131,-1.6129,-1.608,-1.6081,0,0,0,0,0,0,-1.6437,-1.6422,-1.6346,-1.634,-1.6377,-1.6319,-1.6309,-1.6294,-1.6236,-1.6226,-1.6256,-1.6253,-1.6178,-1.6171,-1.6164,-1.6152,-1.6132,-1.6129,-1.6128,-1.608,-1.608,-1.6081,0,0,0,0,0,0,-1.6439,-1.6431,-1.6349,-1.638,-1.6368,-1.6318,-1.6302,-1.6293,-1.6278,-1.6226,-1.6217,-1.6251,-1.6177,-1.6168,-1.6144,-1.6148,-1.6128,-1.6125,-1.6079,-1.608,-1.6081,-1.6128,0,0,0,0,0,0,-1.6443,-1.6432,-1.6431,-1.638,-1.6367,-1.6332,-1.6302,-1.6291,-1.6273,-1.6269,-1.6219,-1.621,-1.6176,-1.6149,-1.6142,-1.6144,-1.6123,-1.6079,-1.608,-1.608,-1.6126,-1.613,-1.6134,0,0,0,0,0,-1.6446,-1.6448,-1.6431,-1.6422,-1.6365,-1.6333,-1.6325,-1.6287,-1.6274,-1.6271,-1.6237,-1.6211,-1.6149,-1.6147,-1.6138,-1.614,-1.6079,-1.608,-1.608,-1.6124,-1.613,-1.6134,0,0,0,0,0,0,-1.6501,-1.6441,-1.6422,-1.6407,-1.6375,-1.6323,-1.6319,-1.6294,-1.6265,-1.6262,-1.6215,-1.6204,-1.6184,-1.6159,-1.6159,-1.6129,-1.611,-1.6109,-1.6146,-1.6151,-1.6155,-1.6161,-1.6121,0,0,0,0,0,-1.6511,-1.6491,-1.6439,-1.6431,-1.6416,-1.6371,-1.6355,-1.6328,-1.6293,-1.628,-1.6244,-1.621,-1.6182,-1.6165,-1.6137,-1.6121,-1.6108,-1.6117,-1.6122,-1.6125,-1.6125,-1.6111,-1.6114,-1.6084,-1.6084,-1.6084,0,0,-1.6532,-1.6497,-1.6487,-1.6441,-1.6414,-1.6392,-1.636,-1.634,-1.6322,-1.6276,-1.6251,-1.6224,-1.6182,-1.6162,-1.6151,-1.614,-1.613,-1.6126,-1.6129,-1.6127,-1.6113,-1.6116,-1.6118,-1.6085,-1.6085,-1.6084,0,0,-1.6559,-1.6531,-1.652,-1.6493,-1.6451,-1.642,-1.6417,-1.6368,-1.6348,-1.6322,-1.6286,-1.6263,-1.6218,-1.6188,-1.6168,-1.6179,-1.6153,-1.6171,-1.6192,-1.6179,-1.6182,-1.6184,-1.6186,-1.6187,-1.6171,-1.6171,-1.6171,0,-1.659,-1.6559,-1.6518,-1.6499,-1.6478,-1.6435,-1.6421,-1.6396,-1.6347,-1.6333,-1.6321,-1.626,-1.6229,-1.62,-1.6202,-1.6188,-1.6181,-1.6177,-1.6185,-1.6186,-1.6187,-1.6189,-1.619,-1.6174,-1.6173,-1.6173,-1.6173,0,-1.6598,-1.6576,-1.6571,-1.6525,-1.6504,-1.6488,-1.6442,-1.6425,-1.6399,-1.6368,-1.634,-1.6301,-1.6263,-1.6253,-1.6228,-1.6219,-1.6213,-1.6194,-1.6174,-1.6193,-1.6194,-1.6194,-1.6177,-1.6176,-1.6175,-1.6175,0,0,-1.6659,-1.6588,-1.6587,-1.6564,-1.6513,-1.6494,-1.6474,-1.6437,-1.6422,-1.6388,-1.6369,-1.6329,-1.6309,-1.6286,-1.6256,-1.6245,-1.6253,-1.6226,-1.6224,-1.6231,-1.6237,-1.6252,-1.6254,-1.6235,-1.6235,-1.6235,-1.624,0,-1.6678,-1.6642,-1.6603,-1.658,-1.6557,-1.6514,-1.6496,-1.6461,-1.6431,-1.6405,-1.6371,-1.6343,-1.632,-1.6305,-1.6292,-1.6255,-1.6254,-1.6254,-1.6215,-1.6214,-1.6227,-1.6254,-1.6271,-1.6278,-1.6241,-1.6241,-1.6241,0,-1.6696,-1.6664,-1.6639,-1.6587,-1.6576,-1.6561,-1.6521,-1.6498,-1.6456,-1.6435,-1.6406,-1.6374,-1.6348,-1.633,-1.6292,-1.6293,-1.6274,-1.6253,-1.6252,-1.6247,-1.6229,-1.6249,-1.6279,-1.628,-1.6241,-1.6241,-1.6241,0,-1.6742,-1.6692,-1.667,-1.6652,-1.6591,-1.6581,-1.6554,-1.6512,-1.6491,-1.6455,-1.644,-1.6402,-1.6381,-1.6351,-1.6308,-1.63,-1.6273,-1.6253,-1.6252,-1.6254,-1.625,-1.6251,-1.6277,-1.6238,-1.6238,-1.6238,-1.6238,0,-1.6767,-1.6753,-1.6689,-1.6676,-1.6657,-1.6611,-1.6593,-1.6562,-1.6524,-1.6502,-1.6461,-1.644,-1.6385,-1.6357,-1.6322,-1.6294,-1.6285,-1.6265,-1.6256,-1.6269,-1.6271,-1.6256,-1.6254,-1.6238,-1.6238,-1.6238,-1.6238,0,-1.6815,-1.6773,-1.6745,-1.6689,-1.6674,-1.6663,-1.6613,-1.6596,-1.6562,-1.6534,-1.6525,-1.6471,-1.6435,-1.6389,-1.6339,-1.6315,-1.629,-1.6277,-1.6305,-1.63,-1.6302,-1.6302,-1.6319,-1.6318,-1.6281,-1.6282,-1.6282,0,-1.6834,-1.6822,-1.6764,-1.6746,-1.6721,-1.6694,-1.6671,-1.6623,-1.6601,-1.655,-1.6539,-1.65,-1.6467,-1.6411,-1.6366,-1.6326,-1.6311,-1.6319,-1.6305,-1.6316,-1.6309,-1.631,-1.6307,-1.6323,-1.6324,-1.6324,-1.6325,0,-1.6871,-1.685,-1.682,-1.6782,-1.6756,-1.6724,-1.6689,-1.6676,-1.662,-1.6597,-1.656,-1.6534,-1.6482,-1.6442,-1.6396,-1.6366,-1.6335,-1.6329,-1.6327,-1.634,-1.6356,-1.6345,-1.6315,-1.633,-1.6329,-1.6329,-1.6329,-1.6328,-1.6904,-1.689,-1.6847,-1.6814,-1.6782,-1.675,-1.6731,-1.6694,-1.6662,-1.6617,-1.6589,-1.6553,-1.6507,-1.6441,-1.6412,-1.6381,-1.6369,-1.6366,-1.6365,-1.6365,-1.6368,-1.6361,-1.6372,-1.6372,-1.6372,-1.6372,-1.6371,0,-1.6938,-1.6907,-1.6877,-1.683,-1.6803,-1.6776,-1.6735,-1.6714,-1.6683,-1.6643,-1.661,-1.6566,-1.6526,-1.6477,-1.6433,-1.6418,-1.6402,-1.6408,-1.6408,-1.6401,-1.6382,-1.6388,-1.6421,-1.6421,-1.6421,-1.6421,-1.6421,-1.6421,-1.6953,-1.6927,-1.69,-1.6857,-1.6825,-1.6789,-1.6768,-1.6736,-1.6704,-1.6657,-1.6624,-1.6592,-1.6547,-1.65,-1.6461,-1.6447,-1.6432,-1.6442,-1.6424,-1.6407,-1.6403,-1.6399,-1.6404,-1.644,-1.644,-1.6445,-1.6445,-1.6445]},{"header":{"parameterUnit":"m.s-1","parameterCategory":1,"la1":30.2991,"la2":30.254,"lo1":-89.0895,"lo2":-89.0444,"dy":0.0017,"dx":0.0017,"nx":28,"ny":28,"refTime":"2024-04-20T09:00:00:Z","depth":0,"parameterNumber":3,"parameterNumberName":"V-component_of_WINDS"},"data":[0,0,0,0,0,0,0,0,0,0,0,0,0,0,0,0,0,0,0,0,0,0,0,0,0,0,0,0,0,0,0,0,0,0,0,0,0,0,0,0,0,0,0,0,0,0,0,0,0,0,0,0,0,0,0,0,0,0,-4.7227,-4.7227,0,-4.7228,-4.7228,-4.7228,-4.7213,-4.7212,-4.7212,-4.7212,-4.7209,-4.721,-4.721,0,0,0,0,0,0,0,0,0,0,0,0,0,-4.721,-4.721,-4.7227,-4.7227,-4.7227,-4.7228,-4.7228,-4.7228,-4.7213,-4.7212,-4.7212,-4.7211,-4.7209,-4.721,-4.721,0,0,0,0,0,0,0,0,0,0,0,0,0,-4.7214,-4.721,-4.7227,-4.722,-4.7219,-4.7228,-4.7228,-4.7228,-4.7213,-4.7212,-4.7212,-4.7211,-4.7209,-4.721,-4.721,-4.7225,0,0,-4.7212,-4.7212,0,0,0,0,0,0,0,0,-4.7214,-4.7215,-4.7221,-4.722,-4.722,-4.722,-4.7221,-4.7227,-4.7213,-4.7215,-4.7211,-4.7211,-4.7213,-4.7213,-4.7215,-4.7225,-4.7225,-4.7212,-4.7212,-4.7212,-4.7212,0,0,0,0,0,0,0,-4.7214,-4.7215,-4.7227,-4.7221,-4.722,-4.7215,-4.7215,-4.7222,-4.7217,-4.7215,-4.7214,-4.7214,-4.7213,-4.7214,-4.7214,-4.7225,-4.7212,-4.7212,-4.7212,-4.7213,-4.7243,-4.7244,0,0,0,0,0,0,-4.7215,-4.7215,-4.7227,-4.7227,-4.7215,-4.7216,-4.7216,-4.722,-4.7217,-4.7216,-4.7215,-4.7214,-4.7214,-4.7214,-4.7214,-4.7229,-4.7212,-4.7213,-4.7213,-4.7243,-4.7244,-4.7244,0,0,0,0,0,0,-4.7215,-4.7216,-4.7227,-4.7221,-4.7222,-4.7217,-4.7222,-4.7221,-4.7222,-4.7217,-4.7216,-4.7217,-4.7213,-4.7214,-4.7222,-4.7229,-4.7213,-4.7213,-4.7242,-4.7243,-4.7244,-4.726,0,0,0,0,0,0,-4.7214,-4.7216,-4.7223,-4.7221,-4.7222,-4.7236,-4.7222,-4.7221,-4.7223,-4.7222,-4.7219,-4.7218,-4.7213,-4.7221,-4.7222,-4.7229,-4.7214,-4.7242,-4.7243,-4.7244,-4.7259,-4.7262,-4.7264,0,0,0,0,0,-4.7214,-4.7228,-4.7223,-4.7225,-4.7231,-4.7237,-4.7237,-4.7231,-4.7224,-4.7229,-4.7226,-4.7218,-4.7228,-4.7222,-4.7223,-4.723,-4.7241,-4.7242,-4.7244,-4.7258,-4.7261,-4.7264,0,0,0,0,0,0,-4.723,-4.7227,-4.7223,-4.7237,-4.7237,-4.7234,-4.7241,-4.7235,-4.7237,-4.7235,-4.7227,-4.7227,-4.7235,-4.7234,-4.7227,-4.7243,-4.7233,-4.7235,-4.7244,-4.7247,-4.7249,-4.7249,-4.7214,0,0,0,0,0,-4.7236,-4.7242,-4.7239,-4.7251,-4.7252,-4.7247,-4.7249,-4.7244,-4.7244,-4.7244,-4.7241,-4.724,-4.7243,-4.7245,-4.7247,-4.7259,-4.7257,-4.7264,-4.7266,-4.7268,-4.7269,-4.7273,-4.7275,-4.7248,-4.7248,-4.7248,0,0,-4.7247,-4.7246,-4.725,-4.7254,-4.7254,-4.7259,-4.7247,-4.7253,-4.7256,-4.7245,-4.7252,-4.7249,-4.7248,-4.7257,-4.7261,-4.7256,-4.7276,-4.727,-4.7272,-4.7271,-4.7274,-4.7277,-4.7279,-4.7249,-4.7249,-4.7249,0,0,-4.7269,-4.727,-4.7279,-4.7279,-4.7279,-4.7275,-4.7277,-4.7275,-4.7273,-4.728,-4.727,-4.7273,-4.7279,-4.7277,-4.7277,-4.7296,-4.7288,-4.7297,-4.7309,-4.7312,-4.7315,-4.7316,-4.7321,-4.7323,-4.7298,-4.7298,-4.7298,0,-4.7283,-4.7291,-4.7285,-4.7291,-4.7292,-4.7282,-4.729,-4.729,-4.729,-4.729,-4.7285,-4.729,-4.7288,-4.7296,-4.73,-4.7301,-4.7302,-4.7297,-4.7315,-4.7317,-4.7318,-4.7323,-4.7325,-4.7299,-4.7299,-4.7299,-4.7299,0,-4.7306,-4.7312,-4.7319,-4.732,-4.7322,-4.7329,-4.7322,-4.7325,-4.7319,-4.7315,-4.7321,-4.7319,-4.7319,-4.7321,-4.7316,-4.7327,-4.7323,-4.7317,-4.7306,-4.7322,-4.7326,-4.7328,-4.7301,-4.73,-4.73,-4.73,0,0,-4.734,-4.7336,-4.7338,-4.7337,-4.7335,-4.7338,-4.7344,-4.7345,-4.7346,-4.7346,-4.7349,-4.7353,-4.7346,-4.7346,-4.734,-4.7344,-4.7356,-4.7336,-4.7336,-4.7338,-4.7366,-4.737,-4.7372,-4.7351,-4.7352,-4.7352,-4.7365,0,-4.736,-4.7371,-4.7364,-4.7375,-4.7379,-4.7368,-4.7372,-4.7371,-4.7367,-4.7368,-4.7363,-4.7365,-4.7357,-4.7356,-4.7359,-4.7354,-4.7361,-4.7353,-4.7352,-4.7352,-4.7352,-4.7375,-4.738,-4.7393,-4.7367,-4.7367,-4.7368,0,-4.7385,-4.7386,-4.7397,-4.7392,-4.7393,-4.7398,-4.7396,-4.7399,-4.7395,-4.7392,-4.7391,-4.7384,-4.7387,-4.7378,-4.7381,-4.7375,-4.7375,-4.7372,-4.7372,-4.7371,-4.736,-4.7373,-4.7397,-4.7399,-4.737,-4.737,-4.737,0,-4.7406,-4.741,-4.7416,-4.7416,-4.7411,-4.7413,-4.7411,-4.7408,-4.7408,-4.7406,-4.7406,-4.7405,-4.7404,-4.7403,-4.7395,-4.7389,-4.7398,-4.7388,-4.7394,-4.7394,-4.7396,-4.7396,-4.7419,-4.7397,-4.7397,-4.7397,-4.7397,0,-4.7428,-4.7435,-4.7425,-4.7429,-4.7435,-4.7427,-4.7433,-4.743,-4.7426,-4.7428,-4.7419,-4.742,-4.741,-4.741,-4.7404,-4.7406,-4.7406,-4.7402,-4.74,-4.7403,-4.7403,-4.7401,-4.74,-4.7398,-4.7398,-4.7398,-4.7398,0,-4.7452,-4.7446,-4.7452,-4.7446,-4.7445,-4.745,-4.7444,-4.7446,-4.7441,-4.7444,-4.7444,-4.7435,-4.7435,-4.7426,-4.7424,-4.742,-4.7424,-4.7421,-4.7425,-4.7424,-4.7429,-4.7428,-4.7451,-4.7453,-4.7432,-4.7432,-4.7432,0,-4.7466,-4.7471,-4.7465,-4.7466,-4.7464,-4.7466,-4.7465,-4.7457,-4.7457,-4.7452,-4.7455,-4.7453,-4.7452,-4.7451,-4.7444,-4.7441,-4.7437,-4.7445,-4.7437,-4.7438,-4.7435,-4.7435,-4.7434,-4.7447,-4.7447,-4.7447,-4.7448,0,-4.7491,-4.7487,-4.7488,-4.7486,-4.7486,-4.7485,-4.7483,-4.7484,-4.7474,-4.7474,-4.7473,-4.7472,-4.7469,-4.7467,-4.7463,-4.7459,-4.7451,-4.745,-4.7451,-4.7453,-4.7455,-4.7452,-4.7429,-4.745,-4.745,-4.7449,-4.7449,-4.7449,-4.7509,-4.7512,-4.7508,-4.7508,-4.7505,-4.7503,-4.7505,-4.75,-4.7499,-4.7496,-4.7491,-4.749,-4.7485,-4.7479,-4.7475,-4.7474,-4.7469,-4.7471,-4.7471,-4.7471,-4.7472,-4.7456,-4.7473,-4.7473,-4.7473,-4.7473,-4.7473,0,-4.7532,-4.7528,-4.7528,-4.7526,-4.7525,-4.7518,-4.7515,-4.7515,-4.7515,-4.7511,-4.7509,-4.7507,-4.7504,-4.7497,-4.7493,-4.7493,-4.7489,-4.7493,-4.7492,-4.7491,-4.7477,-4.7476,-4.7496,-4.7496,-4.7496,-4.7496,-4.7496,-4.7496,-4.7543,-4.7547,-4.7543,-4.7544,-4.7541,-4.754,-4.7539,-4.7536,-4.7533,-4.7531,-4.7529,-4.7524,-4.7518,-4.7514,-4.751,-4.7508,-4.7507,-4.7511,-4.7507,-4.7494,-4.7492,-4.749,-4.7489,-4.7511,-4.7511,-4.7521,-4.7521,-4.7521]}]]